Location: Laguna de la Cañada del Gallo
(40.3974°N, 5.2096°W)
Time: 11:31:59
(UTC+00:00)

CZ-4C R/B - Pass Details

Date: 18 April 2024
Orbit: 530 x 1463 km, 63.4° (Epoch: 21 May)

Event Time Altitude Azimuth Distance (km) Brightness Sun altitude
Rises 22:17:37 0° 325° (NW) 3,862 6.8 -31.1°
Reaches altitude 10° 22:20:04 10° 326° (NW) 3,025 5.9 -31.4°
Maximum altitude 22:27:35 88° 57° (ENE) 1,315 3.0 -32.2°
Enters shadow 22:28:08 80° 135° (SE) 1,341 2.9 -32.2°
